Location: Maccacari
(45.1333°N, 11.1333°E)
Time: 01:52:01
(UTC+00:00)

A-11 Canister half - Pass Details

Date: 24 January 2021
Orbit: 1525 x 1684 km, 47.3° (Epoch: 07 March)

Event Time Altitude Azimuth Distance (km) Brightness Sun altitude
Rises 12:23:07 0° 203° (SSW) 4,659 12.9 24.6°
Reaches altitude 10° 12:26:30 10° 194° (SSW) 3,682 13.0 24.4°
Maximum altitude 12:34:27 33° 134° (SE) 2,349 10.6 24.0°
Drops below altitude 10° 12:42:33 10° 75° (ENE) 3,757 10.8 23.6°
Sets 12:46:01 0° 67° (ENE) 4,766 11.2 23.4°
